User: anonymous
Location: Goheenville
(40.9070°N, 79.3720°W)
Time: 11:31:32
(UTC-04:00)
Language:

Cosmos 1727 Rocket - Orbit

View from above orbital plane
View from above orbital plane
View from above satellite
View from above satellite

Ground track
Ground track

The orbit data is extracted from the following two-line orbital elements,

1 16511U 86008B   14110.31121101  .00000099  00000-0  86620-4 0  4846
2 16511 082.9470 355.5904 0022907 265.2507 232.7361 13.75758951417618
Epoch (UTC): 20 April 2014 07:28:08
Eccentricity: 0.0022907
inclination: 82.9470°
perigee height: 962 km
apogee height: 996 km
right ascension of ascending node: 355.5904°
argument of perigee: 265.2507°
revolutions per day: 13.75758951
mean anomaly at epoch: 232.7361°
orbit number at epoch: 41761

The dashed part of the orbit path shows where the satellite is in the earth's shadow,  

DLR